Hourly Data Report for October 14, 2017

All times are specified in Local Standard Time (LST). Add 1 hour to adjust for Daylight Saving Time where and when it is observed.

FREDERICTON
NEW BRUNSWICK

45°52'08.000" N
66°32'14.000" W
20.70 m
8101505
71700
YFC

Download Data

Hourly Data (October 2017)
Hourly Data Report for October 14, 2017
Temp Definition
°C
Dew Point Temp Definition
°C
Rel Hum Definition
%
Wind Dir Definition
10's deg

Wind Spd Definition
km/h
Visibility Definition
km
Stn Press Definition
kPa
Hmdx Definition


Wind Chill Definition


Weather Definition


TIME
00:00 Legend Double Dagger 5.4 5.0 98 26 4 16.1 102.54     LegendNANA
01:00 Legend Double Dagger 5.3 4.9 97   0 16.1 102.44     LegendNANA
02:00 Legend Double Dagger 6.5 5.9 96 21 5 16.1 102.43     LegendNANA
03:00 Legend Double Dagger 9.9 8.4 90 17 11 16.1 102.33     LegendNANA
04:00 Legend Double Dagger 10.8 8.9 88 20 13 16.1 102.27     LegendNANA
05:00 Legend Double Dagger 11.4 9.2 86 20 15 16.1 102.21     LegendNANA
06:00 Legend Double Dagger 11.7 9.6 87 21 17 16.1 102.17     LegendNANA
07:00 Legend Double Dagger 11.9 9.8 87 21 22 16.1 102.13     LegendNANA
08:00 Legend Double Dagger 12.6 10.3 86 21 13 16.1 102.11     LegendNANA
09:00 Legend Double Dagger 13.2 10.9 86 21 21 16.1 102.10     LegendNANA
10:00 Legend Double Dagger 13.9 11.2 84 21 30 16.1 102.02     LegendNANA
11:00 Legend Double Dagger 14.4 11.7 84 21 22 16.1 101.96     LegendNANA
12:00 Legend Double Dagger 15.7 12.0 79 21 30 16.1 101.89     LegendNANA
13:00 Legend Double Dagger 16.9 12.5 75 22 24 16.1 101.80     LegendNANA
14:00 Legend Double Dagger 17.8 12.6 71 22 24 16.1 101.75     LegendNANA
15:00 Legend Double Dagger 18.6 12.8 69 22 17 16.1 101.71     LegendNANA
16:00 Legend Double Dagger 19.3 12.1 63 23 18 16.1 101.67     LegendNANA
17:00 Legend Double Dagger 17.4 11.9 70 22 15 16.1 101.67     LegendNANA
18:00 Legend Double Dagger 16.2 11.8 75 22 5 16.1 101.71     LegendNANA
19:00 Legend Double Dagger 14.7 12.2 85 21 9 16.1 101.79     LegendNANA
20:00 Legend Double Dagger 14.9 12.3 84 20 13 16.1 101.81     LegendNANA
21:00 Legend Double Dagger 14.7 12.6 87 20 17 16.1 101.83     LegendNANA
22:00 Legend Double Dagger 12.0 11.2 95 22 11 16.1 101.81     LegendNANA
23:00 Legend Double Dagger 12.3 11.7 96   0 16.1 101.82     LegendNANA

Notes on Data Quality.

Legend

  • E = Estimated
  • M = Missing
  • NA = Not Available
  • ‡ = Partner data that is not subject to review by the National Climate Archives
Date modified: